FLOCK 4V-13 (46297 NORAD) Tracking and Keplerian Element Data

This shows tracking and keplerian element data for the satellite.

Feedback or suggestion? Click here.




ElementValue
Catalog46297
NameFLOCK 4V-13
Epoch Orbit299
Epoch Day267.48191364
Epoch Year2020
RAAN340.2519
Inclination97.518
Eccentricity0.0001221
Argument of Perigee127.1754
Mean Anonmoly232.9588
Mean Motion15.10482527
Decay Rate3.32E-06
L11 46297U 20061AB 20267.48191364 .00000332 00000-0 23955-4 0 9996
L22 46297 97.5180 340.2519 0001221 127.1754 232.9588 15.10482527 2999

Live tracking and technical data element details for FLOCK 4V-13 (NORAD 46297). FLOCK 4V-13 can be tracked NOW for your location showing map with azimuth and elevation plus other details from your city location.

Track the satellite on the map from your city or location and see movement details for azimuth, elevation, latitude, longitude, range, height, and movement on the map or in text.







IsCatalogInMostPopularTable: catalog: 46297, numindb: 2
Update: records affected: 1



GetName: 46297 FLOCK 4V-13

Hit Count: updated at: Thu, 24 Sep 2020 19:01:39 GMT